Вернуться в каталог

NIMBUS 2 DEB

АктивенSSO
NORAD 42436·DEBRIS·🇺🇸 United States

Запущен May 15, 1966 с Vandenberg Space Force Base

Loading…

Ближайшие Пролёты (ближайшие 24 часа)

TLE

СвежийSource: Space-Track

Эпоха: Sep 12, 2026, 01:08 UTC

1 42436U 66040BP  26255.04768544  .00001384  00000-0  23558-2 0  9994
2 42436 100.2946 107.0088 0051356 331.2650  28.5653 13.46580874551621

Отслеживайте NIMBUS 2 DEB в реальном времени с AllMySat

Download on the App Store